STARLINK-3751, 52289

Orbit data source: Space-Track

STARLINK-3751, 52289 is a payload satellite owned by SpaceX/Seattle (US) in LEO that was launched on Thu, 21 Apr 2022 UTC via an FALCON 9 launch vehicle from the Air Force Eastern Test Range (AFETR). Payload-class satellites include a variety of spacecraft equipped with specific instruments for various scientific and technological missions. These include communications satellites like Starlink; space stations such as the ISS; scientific satellites like the Hubble; Earth observation satellites from companies like Planet Labs, Umbra, and HawkEye 360; GPS; miniature CubeSats for education and research; and military/defense satellites.

Loading next visibility...
Identifier
52289, 2022-041AE
Orbit
LEO
Country
Flag of USUS
Related business
Manufacturer
SpaceX/Seattle
Mission
Operational Commercial Communications
Bus & Motor
STARLINK, Unknown motor
Mass
297 kg wet, ~275 kg dry
Launch date (UTC)
2022-04-21 (4 years ago)
Launch vehicle
FALCON 9
Launch site
Air Force Eastern Test Range (AFETR)
Object type
Payload
Rocket body
Debris
Shape & HBR
Box + 1 Pan, 10.1 m
Radar Cross Section
11.087 m², Large (>1 m²)

Expand to show TLE details & history
Last TLE update: 16 hours ago

TLE from 16 hours ago
0 STARLINK-3751
1 52289U 22041AE  26129.85243330  .00001178  00000-0  92088-4 0  9991
2 52289  53.2158 184.5478 0000743  74.4613 285.6462 15.08840953223731
Epoch: 2026-05-09T20:27Z
TLE epoch observation values (Epoch: 2026-05-09T20:27:30.237Z)
Latitude
0.00007°
Longitude
10.00794°
Altitude
540.499 km
Speed
7.593 km/s
True Right ascension
12h 18m 11s
True Declination
0° 00' 00"
Sunlit
Object was in full shadow at epoch
Visualization orbit readout
Latitude
Unknown
Longitude
Unknown
Altitude
Unknown
Speed
Unknown
Apparent Right ascension
Unknown
Apparent Declination
Unknown
Sunlit
N/A
Visualization observer readout
Local Sidereal Time
20:35:31
Azimuth
Unknown
Elevation
Unknown
Doppler factor
Unknown
Orbital elements
Apogee altitude
540.5 km
Perigee altitude
539.472 km
Semi-major axis
6,918.123 km
Eccentricity
0.00007
Inclination
53.2158°
RAAN
184.5478°
Arg. of periapsis
74.4613°
True anomaly
285.638°
Mean anomaly
285.6462°
Eccentric anomaly
285.6421°
Mean motion
3.77191 °/min
Orbital period
95.44 mins
BSTAR
0.000092088
Loading maneuver chart data...
Computing Atmospheric mass density...
Loading historical data...
Loading historical data...
Loading historical data...
Loading historical data...
Loading historical data...
Loading historical data...
Loading historical data...

Documentation

Showing up to 5 results
|